Location: Ergnies
(50.0854°N, 2.0375°E)
Time: 05:26:15
(UTC+00:00)

Cosmos 1844 Rocket - Pass Details

Date: 14 January 2026
Orbit: 822 x 845 km, 71.0° (Epoch: 10 February)

Event Time Altitude Azimuth Distance (km) Brightness Sun altitude
Exits shadow 06:29:31 12° 318° (NW) 2,354 4.5 -11.8°
Maximum altitude 06:31:06 13° 335° (NNW) 2,273 4.5 -11.5°
Drops below altitude 10° 06:33:36 10° 2° (N) 2,475 5.0 -11.1°
Sets 06:37:40 0° 30° (NNE) 3,416 6.0 -10.5°
